INDIA1 EHAM-VABB

Flight info

Callsign INDIA1
Flight time N/A
Altitude 35000
Route REND2Z EDUPO Z739 DEGOM L603 BESNI L605 ESEGA DCT SASAL DCT BABIT DCT NISVA Y505 NIKTI UN127 LMO UL618 MES UL609 RDS UL995 VANZA N134 KOMEZ M855 RASDA A16 CVO L315 HGD M872 EVANO J852 WEJ J874 GAS G662 KSA M440 TULBU N881 RASKI L301 KARKU M638 EXOLU
Aircraft B77W/H-SADE1E2E3FGHIJ2J3J4J5J6J7M1M3P1P2P3RUWXYZ/LB1D1

Departure

Time 2026-04-28 18:26
Airport Amsterdam Airport Schiphol (EHAM)

Arrival

Time N/A
Airport Chhatrapati Shivaji Maharaj International Airport (VABB)
Time Latitude Longitude Altitude Speed Heading
2026-04-28 17:52 52.31220 4.77270 4 ft 0 kts 182°
2026-04-28 18:01 52.31230 4.77271 4 ft 2 kts 182°
2026-04-28 18:01 52.31246 4.77272 4 ft 2 kts 182°
2026-04-28 18:02 52.31262 4.77273 4 ft 2 kts 182°
2026-04-28 18:02 52.31279 4.77272 4 ft 2 kts 161°
2026-04-28 18:02 52.31293 4.77259 4 ft 2 kts 130°
2026-04-28 18:02 52.31297 4.77251 5 ft 2 kts 102°
2026-04-28 18:03 52.31295 4.77268 4 ft 0 kts 96°
2026-04-28 18:07 52.31289 4.77348 4 ft 15 kts 96°
2026-04-28 18:07 52.31281 4.77517 4 ft 15 kts 94°
2026-04-28 18:07 52.31308 4.77651 4 ft 11 kts 31°
2026-04-28 18:07 52.31385 4.77654 4 ft 11 kts 356°
2026-04-28 18:08 52.31462 4.77632 4 ft 11 kts 336°
2026-04-28 18:08 52.31529 4.77531 4 ft 14 kts 315°
2026-04-28 18:08 52.31574 4.77388 4 ft 14 kts 279°
2026-04-28 18:08 52.31573 4.77224 4 ft 14 kts 268°
2026-04-28 18:09 52.31568 4.77061 4 ft 14 kts 267°
2026-04-28 18:09 52.31560 4.76829 4 ft 24 kts 266°
2026-04-28 18:09 52.31550 4.76558 4 ft 24 kts 266°
2026-04-28 18:09 52.31541 4.76286 4 ft 24 kts 266°
2026-04-28 18:10 52.31531 4.76016 4 ft 24 kts 266°
2026-04-28 18:10 52.31522 4.75743 4 ft 24 kts 266°
2026-04-28 18:10 52.31512 4.75472 4 ft 24 kts 266°
2026-04-28 18:10 52.31502 4.75200 4 ft 24 kts 266°
2026-04-28 18:11 52.31493 4.74932 4 ft 24 kts 266°
2026-04-28 18:11 52.31483 4.74661 4 ft 24 kts 266°
2026-04-28 18:11 52.31475 4.74389 4 ft 24 kts 271°
2026-04-28 18:11 52.31608 4.74298 4 ft 24 kts
2026-04-28 18:12 52.31775 4.74319 4 ft 24 kts
2026-04-28 18:12 52.31939 4.74339 4 ft 24 kts
2026-04-28 18:12 52.32032 4.74162 4 ft 24 kts 274°
2026-04-28 18:12 52.32042 4.73887 3 ft 24 kts 273°
2026-04-28 18:13 52.32050 4.73616 4 ft 24 kts 274°
2026-04-28 18:13 52.32089 4.73361 5 ft 24 kts 311°
2026-04-28 18:13 52.32212 4.73178 4 ft 24 kts 319°
2026-04-28 18:13 52.32338 4.73001 4 ft 24 kts 320°
2026-04-28 18:14 52.32465 4.72825 4 ft 24 kts 320°
2026-04-28 18:14 52.32592 4.72649 4 ft 24 kts 320°
2026-04-28 18:14 52.32712 4.72465 4 ft 22 kts 311°
2026-04-28 18:14 52.32804 4.72289 4 ft 19 kts 311°
2026-04-28 18:15 52.32891 4.72127 4 ft 19 kts 311°
2026-04-28 18:15 52.32979 4.71964 4 ft 19 kts 311°
2026-04-28 18:15 52.33066 4.71801 4 ft 19 kts 311°
2026-04-28 18:15 52.33145 4.71629 4 ft 19 kts 284°
2026-04-28 18:16 52.33094 4.71443 4 ft 19 kts 220°
2026-04-28 18:16 52.33019 4.71337 4 ft 10 kts 221°
2026-04-28 18:16 52.32971 4.71269 4 ft 6 kts 220°
2026-04-28 18:16 52.32947 4.71235 4 ft 5 kts 220°
2026-04-28 18:17 52.32923 4.71201 4 ft 5 kts 221°
2026-04-28 18:17 52.32899 4.71165 4 ft 5 kts 224°
2026-04-28 18:17 52.32887 4.71146 4 ft 0 kts 227°
2026-04-28 18:19 52.32885 4.71142 4 ft 3 kts 227°
2026-04-28 18:19 52.32868 4.71091 3 ft 0 kts 253°
2026-04-28 18:19 52.32868 4.71089 3 ft 0 kts 254°
2026-04-28 18:20 52.32865 4.71070 3 ft 0 kts 259°
2026-04-28 18:20 52.32865 4.71067 3 ft 0 kts 259°
2026-04-28 18:22 52.32864 4.71052 3 ft 6 kts 262°
2026-04-28 18:22 52.32867 4.70939 3 ft 8 kts 283°
2026-04-28 18:22 52.32904 4.70901 3 ft 6 kts 348°
2026-04-28 18:22 52.32929 4.70899 2 ft 0 kts
2026-04-28 18:23 52.32932 4.70899 2 ft 0 kts
2026-04-28 18:25 52.33097 4.70915 1 ft 67 kts
2026-04-28 18:25 52.33886 4.70987 4 ft 158 kts
2026-04-28 18:25 52.35181 4.71076 326 ft 200 kts
2026-04-28 18:26 52.38280 4.71382 2004 ft 238 kts
2026-04-28 18:26 52.39966 4.71552 2990 ft 244 kts
2026-04-28 18:26 52.41664 4.71721 3960 ft 248 kts
2026-04-28 18:26 52.43399 4.71891 4865 ft 254 kts
2026-04-28 18:27 52.45173 4.72068 5735 ft 260 kts
2026-04-28 18:27 52.46983 4.72251 6682 ft 263 kts
2026-04-28 18:27 52.48623 4.72417 7421 ft 269 kts
2026-04-28 18:27 52.50504 4.72627 8221 ft 273 kts
2026-04-28 18:28 52.52325 4.73666 8876 ft 285 kts 33°
2026-04-28 18:28 52.53686 4.76049 9680 ft 292 kts 63°
2026-04-28 18:28 52.54241 4.79278 10404 ft 299 kts 89°
2026-04-28 18:28 52.54165 4.82713 10880 ft 309 kts 100°
2026-04-28 18:29 52.53336 4.86100 11029 ft 333 kts 129°
2026-04-28 18:29 52.51554 4.88668 11238 ft 351 kts 147°
2026-04-28 18:29 52.49459 4.90977 11609 ft 371 kts 148°
2026-04-28 18:29 52.47312 4.93343 12345 ft 380 kts 147°
2026-04-28 18:30 52.45101 4.95821 13086 ft 386 kts 146°
2026-04-28 18:30 52.44350 4.96672 13264 ft 388 kts 146°
2026-04-28 18:30 52.40606 5.00969 14057 ft 398 kts 146°
2026-04-28 18:30 52.38365 5.03563 14971 ft 400 kts 146°
2026-04-28 18:31 52.36078 5.06209 15869 ft 403 kts 146°
2026-04-28 18:31 52.33778 5.08878 16678 ft 408 kts 144°
2026-04-28 18:31 52.31636 5.12001 17330 ft 417 kts 134°
2026-04-28 18:31 52.29729 5.15626 18065 ft 424 kts 130°
2026-04-28 18:32 52.27837 5.19365 18810 ft 429 kts 132°
2026-04-28 18:32 52.25873 5.23063 19509 ft 433 kts 133°
2026-04-28 18:32 52.23865 5.26763 20238 ft 437 kts 132°
2026-04-28 18:32 52.22001 5.30715 20918 ft 443 kts 127°
2026-04-28 18:33 52.20237 5.34893 21581 ft 448 kts 126°
2026-04-28 18:33 52.18559 5.38960 22218 ft 453 kts 126°
2026-04-28 18:33 52.16769 5.43232 22858 ft 457 kts 127°
2026-04-28 18:33 52.14959 5.47453 23472 ft 461 kts 128°
2026-04-28 18:34 52.13093 5.51735 24073 ft 465 kts 128°
2026-04-28 18:34 52.11203 5.56044 24599 ft 469 kts 128°
2026-04-28 18:34 52.09297 5.60384 25121 ft 473 kts 128°
2026-04-28 18:34 52.07374 5.64761 25666 ft 476 kts 128°
2026-04-28 18:35 52.05440 5.69103 26142 ft 479 kts 130°
2026-04-28 18:35 52.03326 5.73214 26616 ft 481 kts 135°
2026-04-28 18:35 52.01084 5.77217 27090 ft 484 kts 135°
2026-04-28 18:35 51.98812 5.81321 27548 ft 488 kts 135°
2026-04-28 18:36 51.96562 5.85492 27996 ft 492 kts 134°
2026-04-28 18:36 51.94304 5.89708 28430 ft 496 kts 134°
2026-04-28 18:36 51.92030 5.93954 28843 ft 499 kts 134°
2026-04-28 18:36 51.89744 5.98213 29233 ft 503 kts 134°
2026-04-28 18:37 51.87438 6.02494 29601 ft 506 kts 135°
2026-04-28 18:37 51.85141 6.06745 29934 ft 509 kts 135°
2026-04-28 18:37 51.82789 6.11063 30244 ft 512 kts 135°
2026-04-28 18:37 51.80418 6.15392 30511 ft 515 kts 135°
2026-04-28 18:38 51.78811 6.18325 30661 ft 517 kts 135°
2026-04-28 18:38 51.75683 6.24032 31078 ft 518 kts 135°
2026-04-28 18:38 51.73258 6.28459 31444 ft 518 kts 136°
2026-04-28 18:38 51.71676 6.31347 31659 ft 519 kts 136°
2026-04-28 18:39 51.69283 6.35711 32003 ft 519 kts 136°
2026-04-28 18:39 51.66883 6.40081 32351 ft 519 kts 136°
2026-04-28 18:39 51.64470 6.44464 32694 ft 519 kts 136°
2026-04-28 18:39 51.62119 6.48726 32997 ft 519 kts 136°
2026-04-28 18:40 51.59721 6.53063 33316 ft 519 kts 136°
2026-04-28 18:40 51.57304 6.57427 33637 ft 520 kts 137°
2026-04-28 18:40 51.54894 6.61774 33955 ft 520 kts 137°
2026-04-28 18:40 51.52487 6.66110 34254 ft 520 kts 137°
2026-04-28 18:41 51.50078 6.70444 34518 ft 520 kts 137°
2026-04-28 18:41 51.47689 6.74736 34798 ft 519 kts 136°
2026-04-28 18:41 51.45286 6.79044 35060 ft 519 kts 136°
2026-04-28 18:41 51.42896 6.83402 35161 ft 524 kts 133°
2026-04-28 18:42 51.40707 6.88125 35207 ft 529 kts 128°
2026-04-28 18:42 51.37123 6.98444 35203 ft 529 kts 118°
2026-04-28 18:43 51.34028 7.09095 35205 ft 528 kts 118°
2026-04-28 18:43 51.30891 7.19716 35213 ft 528 kts 119°
2026-04-28 18:44 51.27698 7.30310 35211 ft 529 kts 119°
2026-04-28 18:44 51.22908 7.46092 35213 ft 531 kts 119°
2026-04-28 18:45 51.19674 7.56712 35210 ft 532 kts 119°
2026-04-28 18:45 51.15802 7.66621 35213 ft 523 kts 134°
2026-04-28 18:46 51.10670 7.74699 35202 ft 513 kts 148°
2026-04-28 18:46 51.04966 7.81505 35203 ft 514 kts 148°
2026-04-28 18:47 50.99249 7.88381 35203 ft 515 kts 148°
2026-04-28 18:47 50.93593 7.95286 35207 ft 516 kts 148°